Regional Weather Roundup
Issued by NWS

Home | Current Version | Previous Version | Graphics & Text | Print | Product List | Glossary On
Versions: 1 2 3 4 5 6 7 8 9 10 11 12 13 14 15 16 17 18 19 20 21 22 23 24 25 26 27 28 29 30 31 32 33 34 35 36 37 38 39 40 41 42 43 44 45 46 47 48 49 50
000
ASUS45 KBOU 242207
RWRCO

WEATHER ROUNDUP FOR COLORADO
NATIONAL WEATHER SERVICE DENVER/BOULDER CO
400 PM MDT SUN JUL 24 2016

NOTE: "FAIR" INDICATES FEW OR NO CLOUDS BELOW 12000 FEET WITH NO
SIGNIFICANT WEATHER AND/OR OBSTRUCTIONS TO VISIBILITY.

COZ001>005-013-030-031-242300-
...NORTHWEST COLORADO...

CITY           SKY/WX    TMP DP  RH WIND       PRES   REMARKS
CRAIG          FAIR      90  27  10 W12       30.18S
HAYDEN         FAIR      86  32  14 W7        30.21S
MEEKER         FAIR      85  42  22 E13       30.18F
MOUNT WERNER   NOT AVBL
STEAMBOAT SPGS FAIR      83  35  17 S7        30.25S
WALDEN         PTSUNNY   81  30  16 W15G22    30.36F
$$

COZ006>008-011-242300-
...WEST CENTRAL VALLEYS...

CITY           SKY/WX    TMP DP  RH WIND       PRES   REMARKS
GRAND JUNCTION FAIR      98  31   9 W9        30.03F
MONTROSE       FAIR      90  37  15 NW29G36   30.16R
EAGLE          MOSUNNY   90  36  14 SW22G30   30.21R
RIFLE          FAIR      98  32  10 W12G23    30.08F
DELTA          FAIR      90  47  22 NE10G22   30.11R
NUCLA          FAIR     N/A N/A N/A NE7       30.19S
$$

COZ017>023-064>068-242300-
...SOUTHWEST COLORADO...

CITY           SKY/WX    TMP DP  RH WIND       PRES   REMARKS
DURANGO        FAIR      83  39  21 N8        30.23R
CORTEZ         FAIR      96  36  12 W14G21    30.13F
PAGOSA SPRINGS FAIR      83  30  14 NW16G24   30.33F
TELLURIDE      FAIR      72  39  30 SE8       30.49F
WOLF CREEK PAS PTSUNNY   57  34  41 N6G22     30.73S
$$

COZ009-010-012-014-032>034-037-058>063-242300-
...CENTRAL COLORADO...

CITY           SKY/WX    TMP DP  RH WIND       PRES   REMARKS
ASPEN          FAIR      78  36  21 N16G24    30.34R
BUENA VISTA    FAIR      85  27  12 NW5       30.30F
COPPER MTN     PTSUNNY   64  27  24 NW17      30.69S
BERTHOUD PASS  RAIN      46  32  57 MISG      30.75R
COTTONWOOD PAS FAIR      81  12   7 CALM      30.48F
GUNNISON       FAIR      82  36  18 S18       30.33S
KREMMLING      PTSUNNY   77  34  20 SE18      30.32S
LEADVILLE      FAIR      75  23  14 SW9G17    30.48F
MONARCH PASS   FAIR      66  21  18 MISG      30.78F
SALIDA         FAIR      86  32  14 S14G20    30.33S
SUNLIGHT       FAIR      72  37  28 S5        30.62S
WILKERSON PASS FAIR      66  30  26 N6G16     30.66F
$$

COZ069>075-242300-
...SAN LUIS VALLEY/SANGRE DE CRISTO MOUNTAINS...

CITY           SKY/WX    TMP DP  RH WIND       PRES   REMARKS
ALAMOSA        FAIR      84  32  15 W14       30.29F
LA VETA PASS   TSTM      55  46  71 S8        30.56R
SAGUACHE       FAIR      77  43  29 CALM      30.36S
$$

COZ035-036-038>040-242300-
...NORTHERN COLORADO FRONT RANGE...

CITY           SKY/WX    TMP DP  RH WIND       PRES   REMARKS
DENVER INTL AP PTSUNNY   96  36  12 W17       30.10S
DMNS CITY PARK   N/A     88  51  27 W9G18     30.11F
AURORA         PTSUNNY   90  38  15 W17       30.13S
FRONT RANGE AP PTSUNNY   93  41  16 SE12G18   30.12S
ERIE MUNI ARPT RAIN      85  57  38 N20       30.10F
BOULDER MUN AP FAIR      88  52  29 N13G22    30.13F
CENTENNIAL     PTSUNNY   83  34  17 SW8G29    30.17R
BROOMFIELD     PTSUNNY   90  54  29 NW22G28   30.17R
LONGMONT       FAIR      91  51  25 NW9       30.12F
$$

COZ041-046-047-076>085-087-088-242300-
...PIKES PEAK/PALMER DIVIDE AND SOUTHERN FOOTHILLS...

CITY           SKY/WX    TMP DP  RH WIND       PRES   REMARKS
COLO. SPRINGS  PTSUNNY   72  50  45 S13       30.23R
A. F. ACADEMY  FAIR      80  40  24 S7        30.24S
SCHRIEVER AFB  NOT AVBL
ELLICOTT       TSTM     N/A N/A N/A NW13G41   30.25R
FALCON         FAIR      82  37  20 S17G24    30.28S
FORT CARSON    MOSUNNY   69  55  60 SW7       30.19F
LIMON          FAIR      85  56  37 SE14      30.14F
MONUMENT HILL  CLOUDY    72  50  46 W16       30.32R
TRINIDAD       NOT AVBL
$$

COZ042>045-048>051-090-091-242300-
...NORTHEAST COLORADO...

CITY           SKY/WX    TMP DP  RH WIND       PRES   REMARKS
GREELEY ARPT   FAIR      86  61  42 SE8       30.12S THUNDER
AKRON          FAIR      85  58  39 SE18G24   30.12F
BURLINGTON     FAIR      91  57  31 E18G26    30.09F
WRAY           NOT AVBL
STERLING       FAIR      88  59  37 SE10G17   30.08F
HOLYOKE        FAIR      86  55  35 W14       30.10F
FORT MORGAN    FAIR      91  54  28 E16       30.11F
$$

COZ086-089-092>099-242300-
...SOUTHEAST COLORADO...

CITY           SKY/WX    TMP DP  RH WIND       PRES   REMARKS
PUEBLO         PTSUNNY   90  42  18 N23G35    30.11R
LA JUNTA       FAIR      92  60  34 E14       30.06S
LAMAR          FAIR      95  61  32 SE14      30.01S
SPRINGFIELD      N/A     86  58  38 E9        30.09F
$$



USA.gov is the U.S. government's official web portal to all federal, state and local government web resources and services.